This demonstration page uses our WeatherBlox Daily Observations layout. Learn more.

Left ArrowRight Arrow

44.8408, -93.29828

Hourly Observations for March 9, 2022

Temp ( °F °C ) Dew Point ( °F °C ) Humidity (%) Winds ( mph kmh ) Pressure ( in mb ) Visibility ( mi km ) Precip ( " mm )
12:53 am 00:53 Cloudy 23 -5 11 -11.7 60 60 WNW 15 24 30.03 1017 10 16 0.00 0.00
1:53 am 01:53 Mostly Cloudy 20 -6.7 9 -12.8 62 62 WNW 13 20 30.04 1017 10 16 0.00 0.00
2:53 am 02:53 Cloudy with Light Snow 20 -6.7 10 -12.2 65 65 W 12 19 30.04 1017 10 16 0.00 0.00
3:00 am 03:00 Cloudy 20 -6.7 10 -12.2 65 65 W 13 20 30.07 1018 9 14 0.00 0.00
3:28 am 03:28 Cloudy with Light Snow 19 -7.2 10 -12.2 68 68 W 14 22 30.07 1018 10 16 0.00 0.00
3:53 am 03:53 Cloudy 19 -7.2 10 -12.2 68 68 W 13 20 30.04 1017 9 14 0.00 0.00
4:53 am 04:53 Cloudy with Light Snow 19 -7.2 11 -11.7 71 71 WNW 17 28 30.06 1018 7 11 0.00 0.00
5:37 am 05:37 Cloudy 18 -7.8 9 -12.8 68 68 NW 15 24 30.11 1020 9 14 0.00 0.00
5:53 am 05:53 Cloudy with Light Snow 18 -7.8 9 -12.8 68 68 NW 17 28 30.08 1019 9 14 0.00 0.00
6:53 am 06:53 Mostly Cloudy 17 -8.3 8 -13.3 68 68 NW 18 30 30.10 1019 9 14 0.00 0.00
7:02 am 07:02 Partly Cloudy 17 -8.3 8 -13.3 68 68 WNW 16 26 30.14 1021 10 16 0.00 0.00
7:53 am 07:53 Mostly Sunny 17 -8.3 7 -13.9 64 64 NW 22 35 30.13 1020 10 16 0.00 0.00
8:18 am 08:18 Mostly Cloudy with Light Snow 16 -8.9 6 -14.4 65 65 WNW 16 26 30.17 1022 10 16 0.00 0.00
8:30 am 08:30 Partly Cloudy 16 -8.9 6 -14.4 65 65 NW 17 28 30.17 1022 9 14 0.00 0.00
8:53 am 08:53 Mostly Sunny 15 -9.4 4 -15.6 61 61 NNW 21 33 30.15 1021 10 16 0.00 0.00
9:53 am 09:53 Mostly Sunny 16 -8.9 3 -16.1 56 56 NW 17 28 30.16 1021 10 16 0.00 0.00
10:53 am 10:53 Mostly Sunny 17 -8.3 4 -15.6 56 56 NNW 18 30 30.17 1022 10 16 0.00 0.00
11:53 am 11:53 Mostly Sunny 18 -7.8 4 -15.6 54 54 WNW 15 24 30.16 1022 10 16 0.00 0.00
12:53 pm 12:53 Mostly Sunny 18 -7.8 3 -16.1 52 52 W 13 20 30.18 1022 10 16 0.00 0.00
1:53 pm 13:53 Mostly Sunny 18 -7.8 2 -16.7 49 49 WNW 18 30 30.18 1022 10 16 0.00 0.00
2:53 pm 14:53 Mostly Sunny 19 -7.2 1 -17.2 45 45 NW 16 26 30.19 1023 10 16 0.00 0.00
3:53 pm 15:53 Mostly Sunny 18 -7.8 -1 -18.3 43 43 NW 15 24 30.19 1023 10 16 0.00 0.00
4:53 pm 16:53 Partly Cloudy 17 -8.3 -1 -18.3 45 45 NW 17 28 30.21 1023 10 16 0.00 0.00
5:53 pm 17:53 Partly Cloudy 15 -9.4 -2 -18.9 46 46 WNW 17 28 30.22 1023 10 16 0.00 0.00
6:53 pm 18:53 Mostly Clear 14 -10 -2 -18.9 49 49 WNW 14 22 30.26 1025 10 16 0.00 0.00
7:53 pm 19:53 Mostly Clear 13 -10.6 -2 -18.9 51 51 WNW 13 20 30.28 1025 10 16 0.00 0.00
8:53 pm 20:53 Mostly Clear 12 -11.1 -2 -18.9 53 53 WNW 10 17 30.30 1026 10 16 0.00 0.00
9:53 pm 21:53 Partly Cloudy 11 -11.7 -2 -18.9 55 55 WNW 7 11 30.30 1026 10 16 0.00 0.00
10:53 pm 22:53 Partly Cloudy 11 -11.7 -2 -18.9 55 55 W 8 13 30.32 1027 10 16 0.00 0.00
11:53 pm 23:53 Mostly Clear 11 -11.7 -2 -18.9 55 55 W 5 7 30.31 1027 10 16 0.00 0.00

Powered by AerisWeather